Theta_e
314 314 313 313 313 313 313 313 313 314 314 317 321 324 326 327 327 327 327 327 326 326 327 327 327 328 328 328 328 328 327 327 327 327 326 326 326 325 325 325 325 325 325 325 325 324 324 324 324 324 323 323 323 322 322 322 321 320 320 319 319 319 319 319 320 320 320 319 319 319 320 320 319 319 319 320 319 318 315 314 314 312 312 313 312
314 314 314 313 313 313 313 313 312 313 314 315 317 320 323 325 326 327 327 327 327 326 326 326 326 327 327 328 328 328 328 327 327 327 326 326 326 325 325 325 325 325 325 325 325 324 324 324 324 324 324 323 323 323 322 322 321 321 320 320 319 319 320 319 319 320 320 319 319 319 320 319 319 319 320 320 320 318 316 315 314 312 311 311 311
314 314 314 313 313 313 313 313 312 312 313 314 315 317 319 323 324 326 326 326 326 326 326 326 326 326 326 327 327 328 328 328 327 327 326 326 326 325 325 325 325 324 324 324 324 324 324 324 324 324 324 323 323 323 322 322 321 321 321 321 320 320 320 320 320 320 319 319 318 319 319 319 319 320 319 319 318 317 316 315 313 311 311 311 311
314 314 314 313 313 313 314 314 313 311 312 313 314 315 317 319 322 324 325 326 326 326 326 326 326 326 326 326 327 327 327 328 328 327 327 326 326 326 325 325 325 324 324 324 324 323 323 323 323 324 323 323 323 322 322 322 321 321 321 321 321 321 320 320 320 320 319 319 318 318 318 318 318 318 317 316 314 314 313 312 311 310 310 310 310
314 314 313 313 313 313 314 314 314 312 312 311 311 313 314 316 318 321 323 325 325 326 326 326 326 326 326 326 327 327 327 327 327 327 327 327 326 326 326 325 325 325 324 324 324 323 323 323 323 323 323 322 322 322 322 322 321 321 321 321 320 320 320 320 320 320 319 319 318 318 317 317 316 316 316 315 312 310 309 308 308 308 309 309 310
314 313 313 313 313 313 314 314 314 313 312 311 311 311 311 313 314 317 320 322 324 325 326 326 326 326 326 326 326 327 327 327 327 327 327 327 326 326 326 325 325 324 324 324 324 324 323 323 323 323 322 322 322 321 321 321 321 321 320 320 320 320 320 320 320 320 319 318 319 317 315 315 315 314 314 312 310 308 307 305 306 308 308 308 308
313 313 313 312 313 313 313 313 312 311 311 310 310 309 310 311 313 314 317 319 322 324 325 325 326 326 326 326 326 326 327 327 327 327 327 326 326 326 325 325 325 324 324 324 324 324 323 323 323 323 322 322 321 321 321 320 320 320 320 320 320 319 319 318 319 318 318 317 316 315 313 312 311 310 310 308 305 304 304 303 304 306 306 306 307
312 312 312 311 311 311 311 310 310 309 309 308 308 308 308 309 310 312 315 318 320 322 323 325 325 326 326 326 326 326 326 326 326 326 326 326 326 325 325 325 324 324 324 324 324 324 323 323 323 323 322 322 322 321 321 321 320 320 320 320 319 319 318 318 317 316 316 315 314 314 313 310 308 306 304 302 299 300 303 303 302 304 305 305 307
311 310 310 309 309 309 308 308 308 308 308 307 307 307 307 307 308 309 312 315 318 320 322 323 324 325 325 325 325 325 325 325 325 325 325 325 325 325 325 324 324 324 323 323 323 323 323 323 323 323 322 322 322 322 321 321 320 319 319 319 318 318 318 317 316 314 314 313 312 312 309 306 305 303 300 299 301 303 304 302 300 303 303 302 304
308 308 307 307 306 306 307 307 306 307 306 306 306 306 306 306 306 307 308 310 313 317 320 322 323 323 324 324 324 324 324 325 325 325 325 325 325 325 324 324 324 324 323 323 323 323 323 323 323 323 323 322 322 322 321 321 321 321 320 320 319 319 317 316 315 313 312 311 310 310 306 303 304 303 302 303 305 304 303 301 300 301 299 297 299
306 306 305 305 305 305 305 305 305 306 306 306 306 305 306 306 306 306 306 307 308 310 313 316 318 320 321 322 323 323 323 324 324 324 325 325 324 324 324 324 323 323 323 323 322 322 322 322 322 322 322 322 322 322 321 321 321 321 321 320 320 319 317 316 314 313 312 310 309 309 306 305 305 305 304 304 303 302 303 302 300 298 296 296 298
305 305 304 305 304 304 304 304 304 304 304 304 304 304 304 305 305 305 306 306 306 306 307 308 310 312 314 317 319 321 322 322 323 323 323 323 324 323 323 323 323 323 322 322 322 322 322 322 321 321 322 322 322 322 322 321 321 321 321 321 321 319 319 318 316 314 312 310 309 308 307 307 307 305 305 305 304 303 301 300 299 298 296 296 298
303 303 303 303 303 302 302 302 302 302 302 303 303 303 303 303 304 304 304 305 305 305 305 305 305 306 307 309 311 314 317 319 320 321 321 321 321 322 321 321 321 321 321 321 321 321 321 321 321 321 321 321 321 321 320 321 321 321 321 320 319 318 319 319 319 317 315 313 311 309 309 309 308 308 309 309 306 302 298 297 298 298 297 297 299
302 302 301 301 300 300 300 300 301 301 301 301 301 302 302 302 302 303 303 303 304 304 304 304 304 304 304 304 305 306 308 310 312 315 317 318 319 319 320 320 319 320 320 320 321 321 321 321 320 320 320 320 321 321 320 320 319 319 319 318 318 318 318 318 317 317 317 315 313 312 312 312 311 312 313 311 307 304 301 300 300 299 298 298 299
300 299 299 298 298 298 298 299 299 300 300 300 301 301 301 301 301 301 301 301 302 302 303 303 303 303 303 303 303 303 303 304 305 306 308 311 313 314 316 317 318 318 318 319 319 320 320 320 320 320 319 318 319 320 320 320 318 317 317 317 317 316 316 316 317 317 316 315 314 314 314 314 314 314 314 311 310 309 308 308 306 302 299 297 296
298 297 297 297 297 297 297 297 298 298 299 299 300 300 300 300 300 300 300 300 300 301 301 301 302 301 302 301 301 301 302 302 302 302 302 304 306 308 310 312 313 315 316 316 317 317 318 319 319 319 319 319 319 319 319 320 318 317 316 315 315 315 316 317 319 319 318 316 315 315 314 314 315 314 313 312 312 311 308 305 303 300 296 295 293
296 296 296 296 296 297 297 296 297 297 297 298 298 299 299 300 300 300 300 300 300 300 300 300 300 300 300 300 300 300 301 300 300 300 300 300 302 303 305 307 309 310 312 313 314 315 315 316 317 317 318 318 318 318 319 318 317 315 313 313 314 314 315 318 318 317 315 314 313 312 312 312 312 312 312 312 312 310 305 300 298 297 295 294 292
295 295 295 294 295 296 296 296 296 296 296 296 296 297 297 298 299 298 299 299 300 300 299 299 299 299 299 299 299 299 300 299 299 298 298 299 300 301 303 304 306 307 308 309 310 311 312 313 314 315 316 317 317 318 318 318 316 314 312 311 310 310 312 316 316 313 311 309 309 309 309 309 309 310 310 310 310 309 306 303 301 297 295 295 293
294 294 294 294 294 294 295 295 295 295 295 295 295 296 296 297 297 298 298 298 298 299 299 299 299 299 298 298 298 297 297 297 297 297 297 298 299 300 301 303 304 305 306 306 307 308 309 310 311 313 314 314 315 315 315 316 315 314 313 311 308 307 311 315 314 311 309 308 307 307 307 308 308 308 308 308 307 307 307 307 305 300 296 295 292
293 293 293 293 294 294 294 294 294 294 294 295 295 295 296 296 296 297 297 297 297 298 298 298 299 299 298 297 296 295 295 296 296 296 296 297 298 299 300 301 302 303 304 304 305 306 307 308 309 310 311 312 313 313 313 313 313 313 312 309 307 309 313 314 312 310 308 307 306 306 306 306 305 305 305 305 304 303 303 304 304 302 299 295 292
292 292 293 293 293 293 293 293 293 294 294 294 294 295 295 295 295 296 297 297 297 297 297 297 297 297 296 295 295 295 295 295 296 296 296 297 297 298 299 300 301 302 302 303 303 304 305 306 306 307 309 310 311 311 312 312 312 312 311 310 310 313 314 312 311 309 307 305 304 303 301 301 301 301 302 301 300 300 299 299 300 301 301 298 294
292 292 292 293 293 293 293 292 293 293 294 294 294 295 295 295 295 295 295 296 296 296 296 296 296 296 296 295 295 295 295 296 296 296 297 297 297 298 299 299 300 301 301 301 302 303 304 304 305 306 307 308 309 310 311 312 311 311 311 311 312 312 310 309 309 308 304 302 301 299 298 298 297 297 297 297 297 297 296 296 296 296 298 299 298
292 291 292 292 292 292 292 292 292 292 293 293 293 294 294 294 294 295 295 295 295 295 295 295 295 295 296 296 296 296 296 296 296 297 297 297 297 298 298 299 300 300 300 300 301 302 302 303 304 305 306 307 308 309 311 311 311 310 310 310 310 309 306 305 305 303 301 299 297 296 295 295 294 294 294 294 294 294 294 294 294 294 294 295 295
291 291 291 291 291 291 291 291 291 291 292 292 292 293 293 293 294 294 294 294 294 294 294 295 295 295 295 295 296 296 296 296 296 296 297 297 297 298 298 298 299 300 300 300 300 300 301 301 302 303 304 306 307 308 310 311 310 310 310 310 309 307 304 302 301 300 297 295 294 294 293 293 293 293 293 292 292 292 292 292 291 291 291 291 291
290 290 290 290 290 290 290 290 290 290 291 291 291 292 292 292 292 293 293 293 293 293 293 294 294 294 294 294 295 295 295 295 296 296 296 296 297 297 297 298 298 298 299 299 299 299 299 299 300 301 302 304 305 306 308 309 309 310 310 309 307 304 302 301 300 298 296 294 293 293 293 292 292 292 292 291 290 289 289 288 288 288 288 288 287
290 289 289 289 289 289 289 289 289 289 289 290 290 291 291 291 291 292 292 293 293 293 293 293 293 293 293 294 294 295 295 295 295 296 296 296 296 297 297 297 297 297 298 298 298 298 298 298 298 299 300 302 303 305 305 306 307 308 307 305 303 301 301 300 299 297 295 295 294 294 294 293 292 291 290 289 288 287 287 286 286 285 285 286 285
289 289 289 289 289 288 288 288 288 288 288 289 289 290 290 290 291 291 291 292 292 292 292 293 293 293 293 293 294 294 294 294 294 295 295 296 296 296 296 296 297 297 297 297 297 297 297 297 297 298 299 300 302 303 303 303 303 304 303 301 300 300 300 299 298 297 296 296 295 294 293 292 290 290 289 288 287 286 286 286 285 284 284 284 283
289 289 289 288 288 287 287 287 287 287 287 288 288 289 289 290 290 290 291 292 292 292 292 292 292 293 293 293 293 293 293 293 294 294 295 295 295 295 295 296 296 296 297 297 297 297 296 296 296 297 298 299 300 300 300 300 299 300 300 300 299 298 298 297 297 296 296 295 294 293 291 289 288 287 287 286 285 284 284 285 284 283 283 283 282
288 288 287 287 286 286 286 286 286 286 287 287 288 288 289 289 289 290 291 291 292 292 292 293 293 293 293 293 293 293 293 293 294 294 293 294 294 294 294 295 295 296 296 297 297 296 296 295 295 295 296 296 296 297 297 297 296 296 297 297 297 296 296 295 295 295 294 294 293 291 289 287 286 285 285 284 283 283 283 283 283 283 282 282 280
287 286 286 285 285 285 284 284 285 285 286 286 287 287 288 289 289 289 290 291 291 292 292 293 293 293 293 293 293 293 293 293 293 293 293 293 293 294 294 294 295 295 296 296 296 295 294 294 294 294 295 295 294 294 295 295 294 294 294 294 294 294 294 294 294 294 293 293 292 291 289 287 286 285 284 283 282 282 282 283 283 282 281 280 278
285 284 284 284 283 283 283 283 283 284 284 285 286 287 287 288 288 289 290 291 291 292 292 292 292 292 293 293 293 293 293 293 292 292 292 293 293 293 294 294 294 294 295 296 296 295 294 294 294 294 294 294 294 294 294 294 293 293 292 292 292 292 292 292 293 293 292 292 291 290 288 287 286 285 284 283 282 281 281 282 282 281 280 279 277
282 282 282 281 281 282 282 282 282 282 283 284 285 286 287 287 288 288 289 290 290 290 291 291 291 292 292 292 292 292 292 292 292 292 292 292 292 293 293 294 294 294 294 295 295 294 294 294 294 294 294 294 294 294 294 294 293 292 292 291 291 291 291 292 292 292 291 290 289 288 288 287 286 285 284 283 282 281 281 281 281 280 280 279 277
280 280 280 280 280 280 281 281 281 282 282 282 283 285 286 287 288 288 288 288 289 289 289 290 291 291 292 292 292 292 292 292 292 292 292 292 292 292 293 293 293 294 294 294 294 294 294 294 294 294 294 294 294 294 294 294 293 293 292 292 291 291 291 291 292 291 291 290 289 288 287 287 286 285 284 283 282 281 281 280 280 280 279 278 277
279 279 279 279 280 280 280 280 280 280 281 281 282 284 285 286 287 287 287 288 288 288 288 289 290 290 291 291 291 292 292 292 292 292 292 292 292 292 292 292 292 292 293 293 293 293 293 293 294 294 294 294 294 294 294 293 293 293 292 292 292 291 291 291 290 290 289 289 288 288 287 286 285 285 284 282 282 281 281 280 280 279 279 278 277
278 278 278 279 279 279 279 279 280 280 280 281 281 282 283 284 285 286 287 287 288 288 288 288 289 290 290 291 291 291 291 291 292 292 292 292 291 292 291 291 291 291 292 293 293 293 293 293 293 293 294 294 294 293 293 293 293 293 292 292 292 291 290 289 289 289 288 288 287 287 286 285 285 284 283 282 281 281 280 280 280 279 279 278 278
278 278 278 278 278 278 278 279 279 279 280 281 281 282 282 283 284 285 286 287 287 288 288 288 289 289 290 290 290 290 291 291 291 291 291 291 291 291 291 290 290 291 291 292 293 293 293 293 293 293 293 294 293 293 293 293 293 293 292 292 291 291 290 289 288 288 287 287 287 286 285 284 283 283 282 281 281 281 280 280 279 279 279 278 278
277 277 277 277 277 277 277 277 278 278 279 280 281 281 282 283 284 284 285 286 286 287 288 288 289 289 289 290 290 290 291 291 291 291 291 291 291 291 290 290 290 291 291 292 292 293 293 293 293 293 293 293 293 293 293 293 293 293 292 292 291 290 289 289 288 287 287 286 286 285 284 283 282 282 281 281 280 280 280 280 279 279 278 278 277
275 275 275 275 275 276 276 276 277 278 278 279 280 281 282 282 283 284 284 285 285 286 287 287 288 288 289 289 289 290 290 290 290 291 291 291 291 290 290 290 290 290 291 291 292 292 292 293 293 293 293 293 293 293 293 293 293 292 292 291 290 290 289 288 287 286 286 285 285 284 283 282 282 281 281 280 280 279 279 279 279 278 278 278 277
273 273 273 273 274 274 274 275 276 277 278 278 279 280 281 282 282 283 283 284 285 285 285 286 287 287 288 288 289 289 290 290 290 290 290 290 290 290 290 290 290 290 291 291 291 292 292 292 292 292 293 293 293 293 293 293 292 292 291 290 289 288 288 287 286 285 285 284 284 283 282 282 281 281 280 280 279 279 279 278 278 278 278 277 277
271 271 271 272 272 273 273 274 275 276 277 278 278 279 279 280 281 282 282 283 283 284 284 285 286 286 286 287 287 288 288 289 289 290 290 290 290 290 290 290 290 290 290 290 291 291 291 291 292 292 292 292 292 292 292 292 292 291 290 290 289 288 287 286 286 285 284 283 283 282 282 281 281 280 280 280 279 279 278 278 278 278 277 277 276
269 269 270 270 271 272 272 273 274 275 275 276 277 277 278 279 280 280 281 281 282 282 282 283 283 283 284 284 284 285 286 287 288 288 288 288 289 289 289 289 289 290 290 290 290 290 291 291 291 291 291 291 291 291 291 291 291 290 289 288 288 287 286 285 285 284 283 283 282 281 281 280 280 280 279 279 279 279 278 278 278 277 277 276 276
268 268 269 270 271 271 272 272 273 273 274 275 275 276 277 278 279 279 280 280 280 280 280 281 281 281 282 282 283 284 284 285 286 286 286 287 287 287 287 287 287 287 287 288 288 288 289 289 290 290 290 290 290 290 290 290 289 289 288 287 286 286 285 284 284 283 282 282 281 281 280 280 279 279 279 279 278 278 278 277 277 277 276 276 275
268 268 269 269 270 270 271 271 272 272 273 274 275 276 277 277 277 278 278 278 278 279 279 280 281 281 281 281 281 281 282 282 283 283 284 284 283 283 283 283 283 284 284 285 285 286 286 287 288 288 289 289 289 289 289 289 288 288 287 286 285 285 284 283 282 282 281 281 280 280 280 279 279 279 278 278 278 277 277 276 276 276 275 275 275
267 267 268 268 269 270 270 271 271 272 273 274 275 276 276 276 276 277 277 277 278 278 278 278 278 278 278 278 278 279 279 280 280 280 280 279 279 279 279 280 280 280 281 282 283 283 284 285 286 286 287 287 287 287 287 287 287 287 286 285 284 283 283 282 281 281 281 280 280 279 279 278 278 278 277 277 277 276 276 276 275 275 275 274 274
266 267 268 268 269 270 270 271 272 273 273 274 275 275 275 275 275 275 276 276 275 275 275 275 275 275 275 275 275 275 276 276 276 276 276 276 276 276 277 277 277 278 278 279 280 281 282 283 284 284 284 285 285 285 285 285 285 285 285 285 284 283 282 281 281 280 280 279 279 278 278 278 277 277 277 276 276 276 275 275 275 275 274 274 274
266 267 268 268 269 270 271 271 272 273 273 273 273 273 273 274 273 273 273 273 273 272 272 272 272 272 272 272 272 272 272 272 272 273 273 273 273 273 274 274 275 275 276 277 278 279 280 281 281 282 282 282 282 283 283 283 283 283 283 283 282 282 281 281 280 280 279 279 278 278 277 277 277 276 276 276 276 275 275 275 274 274 274 273 273
267 267 268 269 269 270 271 271 271 271 271 272 272 272 272 272 271 271 271 270 270 270 270 269 269 269 269 269 269 269 269 269 270 270 270 270 270 270 271 272 272 273 274 274 275 276 277 278 278 279 279 279 280 280 280 281 281 281 281 281 281 281 280 280 279 279 278 278 278 277 277 276 276 276 275 275 275 275 274 274 274 273 273 273 272
267 267 268 268 268 268 268 268 269 269 269 269 269 269 269 269 269 268 268 268 268 268 268 268 268 267 267 268 268 268 268 268 268 268 268 268 268 268 269 269 270 270 271 272 272 273 274 274 275 276 276 277 277 278 278 279 279 279 279 279 280 279 279 279 278 278 278 278 277 277 277 276 276 275 275 275 274 274 273 273 273 272 272 272 272
266 266 267 267 267 266 266 266 266 266 266 266 266 266 266 267 266 266 266 266 266 266 266 266 266 266 266 266 267 267 267 266 266 266 266 266 267 267 267 268 268 268 269 269 269 270 271 272 272 273 274 274 275 275 276 276 277 277 278 278 278 278 278 278 278 278 277 277 277 277 276 276 275 274 274 274 273 273 273 272 272 272 271 271 271
265 265 265 265 265 265 265 265 265 265 265 265 265 265 265 265 265 264 264 264 264 264 265 265 265 265 265 265 266 266 266 266 266 266 265 265 265 265 266 266 266 266 266 266 267 267 268 269 270 271 271 272 273 273 274 274 274 275 275 276 276 276 277 277 277 277 277 277 277 276 276 275 274 274 273 273 273 272 272 271 271 271 271 270 270
264 264 264 264 264 264 264 264 264 264 264 264 264 264 264 264 264 264 264 264 263 264 264 264 264 264 264 264 264 265 265 265 265 266 266 266 266 266 266 266 266 266 266 266 266 267 267 268 268 269 269 270 270 270 271 271 272 272 273 274 274 275 275 276 276 276 276 276 276 275 275 275 274 273 272 272 272 271 271 270 270 270 270 270 270
Wind_Speed
14 15 15 16 17 19 19 18 18 21 24 27 29 32 34 35 36 37 37 37 37 37 37 37 38 37 37 38 39 39 40 40 41 40 40 40 41 41 40 40 41 42 41 41 40 40 41 41 41 41 40 40 40 39 38 38 38 38 37 36 35 33 32 26 17 14 18 21 22 22 23 26 30 33 34 35 36 38 36 34 34 34 33 32 32
16 17 17 18 19 21 22 21 19 19 21 24 27 30 32 34 34 35 35 36 36 36 37 37 37 37 37 37 38 38 39 40 40 39 39 40 40 40 39 39 40 41 40 40 41 40 41 41 41 40 40 40 40 38 37 37 37 37 36 34 33 32 31 30 23 16 15 19 22 22 23 26 29 31 33 35 37 36 34 33 33 33 32 31 31
17 17 18 20 21 23 24 24 22 20 21 23 25 28 30 32 33 33 34 35 36 36 36 37 37 37 37 38 38 39 39 39 39 38 38 39 39 40 40 40 41 41 41 41 42 41 40 41 41 40 38 37 38 36 36 35 34 34 34 33 33 33 32 33 29 21 18 18 20 23 24 26 28 30 32 33 34 33 32 31 31 32 31 30 30
18 18 18 21 23 25 27 26 24 22 21 22 24 25 28 30 31 33 34 35 35 35 36 36 36 37 37 38 39 39 39 39 39 39 39 40 41 41 41 41 42 42 43 43 42 40 40 40 40 39 37 36 36 35 35 34 33 33 33 33 34 34 34 34 33 29 24 20 18 21 24 26 29 30 30 30 30 30 30 29 30 30 30 29 29
18 18 19 22 25 27 28 27 25 24 23 23 23 24 25 27 29 31 33 34 35 35 35 35 35 36 37 38 39 39 39 40 39 39 40 40 41 42 42 42 42 43 43 43 42 41 40 40 40 38 35 35 36 35 35 35 34 34 34 35 35 35 35 35 34 33 30 26 23 22 22 24 26 27 28 28 28 28 28 29 29 28 28 28 29
19 19 20 23 26 28 29 27 26 26 25 25 24 24 24 25 27 29 31 33 34 35 35 35 35 36 37 38 39 39 39 39 39 40 41 41 41 42 42 42 42 42 43 42 42 41 41 41 41 38 37 37 37 36 35 34 34 34 35 35 35 36 36 35 35 33 31 30 29 24 22 24 25 25 27 29 29 28 28 27 28 29 29 29 30
20 20 21 23 25 27 28 28 29 29 29 29 28 27 26 25 26 27 28 30 33 34 35 35 35 35 36 37 38 39 39 39 39 40 41 41 41 41 41 41 41 41 41 41 41 40 40 41 40 39 39 39 38 37 35 34 35 35 36 35 35 34 32 31 32 32 31 29 26 22 21 23 24 23 25 26 25 25 25 24 25 29 30 30 31
21 21 22 22 23 26 27 28 30 31 31 32 32 31 29 28 27 27 28 29 31 33 34 35 35 35 36 38 38 39 39 39 40 41 41 40 40 40 39 39 39 39 39 40 40 39 40 40 41 41 41 41 40 39 38 37 36 36 37 37 36 33 30 29 29 30 30 27 25 24 22 20 21 21 20 20 20 23 28 27 26 27 29 29 31
21 22 22 22 23 24 25 26 27 28 30 31 31 32 31 30 29 28 28 29 30 31 31 32 33 34 36 37 38 38 39 40 41 40 39 38 37 38 38 37 37 38 38 38 38 39 39 40 41 42 42 43 44 44 43 42 39 37 36 36 36 35 33 32 30 28 26 23 23 23 19 18 21 21 20 22 26 27 28 28 27 27 25 24 27
22 22 23 23 23 23 23 23 24 25 27 28 29 30 30 29 29 28 28 28 29 30 30 30 30 32 34 35 36 37 38 39 40 39 39 38 37 36 36 36 36 36 36 36 36 38 39 41 42 43 43 44 44 45 45 44 44 43 41 40 39 37 35 32 30 29 25 21 21 21 15 14 22 27 27 31 33 28 24 25 27 25 19 15 18
21 21 21 21 21 21 22 22 22 23 24 25 27 28 28 28 28 28 28 27 27 28 29 29 30 31 31 32 33 35 36 38 38 38 38 37 37 36 36 36 35 35 35 35 36 37 38 39 41 42 43 44 44 45 45 45 46 47 47 46 44 42 38 34 32 31 27 22 23 23 18 17 25 30 31 31 29 27 27 27 25 21 16 11 9
18 18 18 18 19 20 22 22 23 23 23 24 25 26 27 27 27 28 29 28 27 27 28 29 30 31 31 32 33 34 35 36 35 36 37 37 36 36 36 36 35 35 35 35 36 36 35 36 38 39 40 42 43 44 44 44 46 48 49 50 49 47 44 41 37 34 31 27 25 24 24 24 26 29 32 32 30 30 29 26 24 22 20 16 12
16 16 17 18 20 22 23 24 24 25 24 25 25 25 26 26 26 27 28 28 28 29 29 29 30 30 30 32 33 34 35 35 34 34 34 35 36 37 39 38 37 37 37 37 37 37 36 36 37 38 39 38 38 39 41 43 46 48 50 51 50 48 47 47 46 42 38 35 31 29 32 31 28 31 37 37 33 30 26 24 25 25 23 21 21
16 17 19 20 22 24 25 26 26 26 26 25 25 26 26 26 26 26 26 27 28 29 30 30 30 30 29 30 32 34 35 35 34 33 33 32 32 34 37 39 39 39 39 38 37 37 37 36 36 37 38 39 40 42 43 43 44 45 46 47 48 49 48 48 47 44 43 41 37 35 37 36 34 36 39 38 35 31 28 28 29 29 27 23 20
17 19 21 22 24 26 26 27 27 27 27 27 27 27 26 26 26 26 26 26 27 28 29 29 30 30 29 29 30 33 34 33 32 33 33 32 31 31 33 35 36 38 39 39 38 38 38 37 38 39 39 39 41 43 43 42 40 40 41 42 44 46 46 45 44 43 45 44 42 41 40 40 40 39 37 36 36 34 31 30 30 29 25 18 13
19 21 22 24 25 26 26 26 26 27 27 27 28 28 27 27 26 26 26 26 25 26 27 28 29 30 30 29 29 33 34 31 29 31 31 31 31 32 33 34 35 36 38 38 37 38 38 37 38 39 39 39 39 39 40 40 40 40 40 40 41 41 42 42 41 42 45 46 46 45 44 42 40 38 36 35 33 32 30 25 22 21 18 13 11
23 23 24 25 26 26 25 25 25 26 26 27 28 28 27 27 26 24 25 26 26 25 26 28 28 28 29 29 29 33 35 30 28 29 27 26 27 29 32 33 34 36 37 36 35 37 38 37 37 37 38 39 39 39 39 39 39 38 37 37 37 37 38 39 38 40 42 42 43 43 41 40 37 34 34 33 30 31 29 23 20 22 19 11 8
26 27 27 27 26 25 24 23 23 24 25 26 26 27 27 27 25 23 22 24 26 25 25 27 28 28 28 29 28 31 34 31 28 28 26 24 24 26 29 31 33 36 37 36 36 37 38 39 38 37 38 39 38 37 37 38 39 38 35 33 31 31 33 35 35 36 36 35 36 37 35 35 33 31 31 31 31 33 32 28 27 27 21 12 9
26 28 29 29 27 25 23 22 22 22 23 24 24 25 26 26 25 24 22 22 23 24 24 26 28 28 27 28 27 28 32 31 27 26 26 23 22 24 27 29 32 33 33 34 35 37 38 38 38 38 39 38 37 36 36 36 38 39 37 33 29 30 33 34 33 34 34 33 34 35 34 33 32 30 30 30 31 33 33 33 34 32 25 18 15
26 27 29 29 28 26 25 24 23 22 22 22 22 23 24 24 24 24 24 23 23 23 23 24 27 28 26 26 25 25 27 29 27 25 24 23 22 23 25 28 30 31 30 30 32 34 34 35 36 36 36 36 35 35 34 34 36 38 37 33 30 31 33 34 34 35 35 34 33 33 32 31 30 30 30 30 30 31 31 31 33 34 30 24 23
26 28 29 29 29 28 27 25 25 24 22 22 22 23 23 23 23 23 24 24 24 24 24 23 26 28 26 23 23 23 23 24 24 23 22 22 21 22 25 28 28 29 30 31 31 32 31 31 32 32 32 33 34 34 34 34 35 36 37 36 35 35 34 34 35 34 33 32 31 29 27 27 27 27 28 29 30 30 30 30 29 31 31 27 26
25 27 29 29 29 29 28 27 26 25 24 23 24 25 24 23 22 22 22 23 23 24 24 24 25 28 27 24 22 21 20 20 21 20 20 20 19 20 23 26 27 28 31 31 31 30 30 30 30 30 30 31 32 33 33 33 34 36 38 38 37 35 33 32 32 31 31 31 29 26 25 25 25 26 27 28 29 29 30 29 27 26 28 27 25
25 26 27 28 29 29 29 28 27 26 25 24 25 26 26 25 24 23 21 22 23 23 23 22 23 26 29 26 22 20 20 19 19 19 19 19 18 18 20 22 24 26 30 32 31 30 30 31 32 31 31 31 32 32 32 33 35 37 38 37 36 33 30 28 27 28 28 27 25 26 27 27 28 27 27 28 29 29 30 29 27 25 24 24 23
26 26 26 27 29 29 29 28 26 25 25 25 25 26 26 26 25 24 22 22 22 23 23 22 21 23 26 27 26 23 21 20 19 19 19 18 18 18 19 20 21 23 28 32 32 31 32 32 32 32 32 32 32 31 31 32 33 33 34 33 33 32 29 27 25 25 23 21 21 22 24 28 29 29 30 30 29 29 29 27 25 24 22 21 21
28 26 25 25 27 28 29 28 26 25 25 25 25 25 26 26 25 24 23 22 21 21 22 21 21 21 22 25 27 26 23 22 22 21 20 19 18 17 18 18 19 21 25 29 31 32 33 33 33 32 32 32 31 31 31 32 31 32 32 31 31 30 29 27 26 25 24 23 23 23 23 26 28 27 27 28 28 27 26 24 22 21 20 20 19
27 25 24 24 24 25 27 27 26 25 25 24 23 23 23 23 24 23 22 22 21 20 21 21 20 21 21 23 26 27 26 24 23 22 20 19 18 18 19 19 20 21 24 26 28 29 31 31 31 31 31 31 30 31 32 32 31 31 32 30 29 29 30 29 29 28 27 27 28 29 28 28 28 26 26 27 28 28 28 27 25 24 23 25 24
27 25 25 25 26 27 27 29 29 28 27 25 24 23 22 21 22 21 20 21 21 20 20 19 18 19 20 22 26 28 26 24 23 23 21 20 20 21 22 22 22 23 24 26 27 28 28 29 29 28 29 29 29 30 30 30 29 29 29 28 29 30 31 31 31 30 29 28 27 26 25 26 27 27 28 30 31 30 30 31 30 28 28 29 28
25 25 25 25 26 26 27 29 31 32 30 28 25 24 23 21 21 21 20 19 20 21 20 19 19 19 21 22 24 26 25 22 21 22 23 24 26 27 26 25 25 25 26 27 28 29 28 27 26 25 24 24 25 25 25 25 24 25 26 27 28 29 29 29 29 28 26 23 21 20 20 22 25 27 30 32 32 31 31 31 31 31 31 30 27
22 22 22 23 23 24 24 25 26 27 29 30 29 28 25 23 23 26 24 20 19 21 23 23 22 22 23 23 22 22 24 24 24 25 27 28 29 29 29 28 27 27 28 29 29 29 26 24 22 21 20 19 19 20 21 21 21 21 23 24 25 26 27 27 27 26 24 21 21 22 23 23 24 27 30 31 31 31 32 33 33 31 30 27 24
22 20 21 22 23 25 26 26 25 24 25 27 29 31 30 26 24 25 27 26 22 20 22 24 24 23 25 27 25 23 26 29 29 29 29 28 27 28 28 28 28 28 28 29 29 27 23 20 19 18 17 17 17 17 19 19 19 20 21 22 24 26 27 28 28 26 25 26 27 27 26 26 27 30 32 32 32 32 32 35 36 34 30 27 24
21 21 21 22 24 25 26 26 25 24 24 24 25 28 31 32 28 25 24 24 23 21 21 24 24 23 25 29 28 26 27 28 28 27 27 27 27 27 28 28 28 27 27 27 27 24 20 18 17 17 17 17 17 18 18 17 18 19 19 21 23 25 26 27 27 26 26 27 27 27 27 28 28 30 31 33 34 33 32 34 34 32 29 27 26
22 23 24 25 25 24 22 22 21 21 22 22 23 23 25 29 30 28 24 22 22 23 24 25 26 25 24 24 25 27 27 26 26 26 26 26 27 27 27 27 27 26 26 26 26 23 20 18 17 16 16 17 18 18 18 18 18 19 19 20 22 24 26 28 28 27 27 27 26 27 28 28 29 29 29 31 32 31 30 31 30 26 24 25 27
25 25 26 26 25 22 19 19 19 20 20 21 22 22 22 22 25 28 29 27 26 26 24 22 21 22 21 21 23 25 26 26 27 27 26 26 26 27 27 27 26 24 24 25 24 22 20 19 19 18 17 17 18 19 20 20 21 22 22 23 23 25 28 29 28 29 29 28 27 27 28 28 28 28 28 30 32 31 30 29 27 25 24 25 27
25 24 24 23 22 21 19 20 20 21 21 21 21 21 22 21 22 25 27 27 25 25 23 20 19 20 21 23 23 24 26 27 28 26 25 25 25 26 27 28 26 24 23 24 24 21 20 20 20 19 19 19 19 19 20 21 22 23 24 25 25 25 26 26 27 27 27 27 26 25 25 26 28 28 29 29 30 29 27 25 25 25 24 25 25
24 23 22 21 22 22 22 22 22 22 21 22 22 22 23 23 23 23 24 23 23 23 23 22 21 22 23 25 25 26 27 28 27 26 25 24 24 25 26 27 24 20 19 21 23 23 22 21 20 20 20 20 20 20 21 22 22 23 24 25 25 24 23 24 25 26 25 25 25 25 26 26 27 29 30 30 30 28 26 26 26 25 25 25 24
23 23 22 22 23 23 23 23 23 23 23 23 23 23 23 23 23 23 23 23 24 24 24 24 24 24 25 26 27 27 26 25 25 25 25 25 24 24 24 23 20 18 18 19 21 23 23 23 22 22 21 21 21 22 23 23 24 25 26 25 25 24 24 25 26 26 25 25 25 25 26 26 26 27 27 27 26 25 25 25 25 25 25 26 25
23 23 24 24 24 25 25 25 24 24 24 24 23 23 23 23 23 23 23 23 24 24 23 23 24 23 23 23 23 24 25 26 27 27 27 25 23 22 23 23 21 19 19 19 19 21 22 23 23 23 23 23 23 23 24 25 25 26 26 26 25 25 25 25 26 26 26 25 24 25 25 26 27 28 27 24 22 22 22 24 24 23 25 26 25
25 26 26 26 26 26 26 25 24 23 23 22 22 21 22 22 22 22 23 23 23 24 23 23 22 21 21 22 23 24 26 26 26 25 24 22 20 20 22 22 22 21 20 20 20 21 22 23 23 24 25 25 25 25 25 25 25 26 25 25 25 25 25 24 24 25 25 24 24 25 26 27 28 28 27 24 23 22 23 24 24 23 24 25 24
27 28 27 26 26 25 24 22 21 21 20 20 19 19 20 20 20 20 20 20 21 22 22 22 21 20 21 24 25 24 23 22 20 20 21 21 20 20 21 21 21 21 21 21 21 22 23 23 23 24 25 26 26 26 26 25 25 25 25 24 24 24 24 24 25 25 26 25 25 26 27 27 27 28 27 25 24 24 23 24 24 24 24 23 23
28 27 25 23 23 23 21 20 20 19 18 18 18 18 19 19 18 18 19 19 19 20 20 20 20 20 22 24 26 25 24 22 20 19 19 20 20 20 21 21 21 21 21 22 21 21 22 23 23 24 25 25 25 26 26 26 25 24 24 24 24 25 25 26 26 26 27 26 26 26 26 26 27 28 27 26 26 26 26 25 25 25 24 23 23
26 24 21 20 20 20 20 19 19 18 18 19 19 18 19 19 18 18 19 19 19 20 21 20 21 23 25 27 28 28 27 25 23 21 21 20 20 20 20 21 21 21 21 21 21 21 22 22 23 23 24 25 25 26 26 25 25 24 24 25 25 25 25 25 26 27 27 26 26 26 26 27 28 28 26 26 27 27 27 26 25 25 25 24 23
23 22 20 18 18 18 18 18 19 19 20 19 19 18 18 18 17 18 18 19 19 20 21 22 24 25 25 25 26 26 26 25 24 24 23 22 21 21 21 22 23 24 24 24 23 22 22 23 23 24 24 25 25 25 25 25 25 24 25 25 25 24 24 25 26 26 27 26 27 27 27 27 28 27 26 27 28 27 27 26 26 26 26 25 24
20 19 19 18 18 18 19 19 20 19 19 18 18 17 17 18 18 18 18 19 19 18 19 20 22 23 23 24 23 23 23 23 23 23 23 22 22 23 24 25 26 26 26 26 25 24 24 24 24 25 25 25 25 25 26 26 26 25 25 25 25 25 25 25 25 26 27 27 27 28 28 28 28 27 27 28 29 28 27 27 26 26 26 26 25
20 20 19 19 19 18 19 19 19 19 19 18 18 18 18 18 18 18 17 17 17 17 17 18 20 21 22 23 22 20 20 20 20 21 22 23 23 24 24 25 24 23 23 22 22 21 21 22 22 23 22 22 22 23 24 24 25 26 26 26 26 26 26 26 27 29 29 29 29 29 29 29 28 28 29 29 30 29 28 27 27 26 26 26 25
20 19 18 18 18 18 19 19 19 19 18 18 18 18 18 17 17 16 16 16 16 16 16 17 18 18 19 19 19 20 20 21 21 21 21 21 22 22 22 21 21 20 19 18 18 18 17 17 17 17 18 18 18 19 20 21 23 24 26 27 27 27 27 27 28 29 31 31 31 30 30 30 29 29 30 30 31 31 29 28 28 27 26 26 25
19 19 19 19 20 21 20 19 17 17 16 16 16 16 16 16 15 15 15 15 14 14 15 15 15 16 17 18 19 21 22 22 21 21 20 20 19 18 18 17 16 15 15 14 14 13 12 12 13 13 13 14 14 15 16 18 19 21 22 23 24 25 26 27 28 30 31 32 32 32 32 30 30 30 31 31 31 31 30 29 29 28 27 26 25
19 19 19 19 19 18 16 15 15 15 16 15 15 15 14 14 14 14 13 13 13 13 13 14 15 15 17 18 19 20 20 20 19 19 18 18 17 16 15 14 13 12 11 10 9 9 8 8 8 9 9 10 10 11 12 14 15 17 18 20 22 23 25 27 28 30 32 33 34 35 34 33 31 31 31 31 30 29 29 28 28 27 27 26 26
15 15 15 14 13 13 13 14 14 14 14 14 14 14 14 14 13 13 13 13 13 13 14 14 15 16 17 18 18 18 18 18 17 17 17 16 16 15 14 12 11 10 9 8 7 6 4 4 3 4 4 5 6 8 9 11 13 14 16 18 20 22 25 27 29 31 33 33 34 35 35 35 33 32 31 30 29 29 28 27 26 26 26 26 26
11 11 11 11 11 12 13 13 13 13 13 13 14 14 14 14 15 15 15 15 15 15 16 16 16 17 18 17 17 17 17 17 17 17 17 16 15 13 12 11 11 10 10 10 9 7 5 3 1 1 2 4 6 7 8 10 11 13 15 17 19 22 25 27 29 32 33 34 34 35 34 34 33 31 30 29 28 27 27 27 26 26 26 25 25
11 11 11 11 12 12 12 11 11 12 13 13 13 14 14 14 15 16 16 17 17 18 19 19 19 19 18 17 17 16 16 16 16 16 16 15 15 14 13 13 13 13 13 12 12 10 9 8 7 6 6 6 7 7 8 9 10 12 14 16 18 21 23 26 28 30 31 32 33 33 33 32 32 30 29 28 27 26 26 26 26 26 26 25 25
13 12 12 12 12 12 12 12 12 13 13 13 13 14 14 13 14 14 15 16 17 18 18 18 19 19 19 19 18 17 17 16 16 15 15 14 14 14 14 15 15 15 15 15 14 14 13 13 12 12 12 12 12 11 11 11 11 12 13 15 17 19 21 22 24 26 27 28 29 30 30 30 30 29 28 28 27 26 26 26 26 26 26 25 25
Wind_Direction
338 335 334 331 326 321 315 305 293 284 277 271 266 263 261 259 258 258 258 258 258 256 255 254 253 253 251 249 246 244 242 241 239 238 236 237 237 238 238 238 238 239 241 241 240 239 239 240 240 240 239 240 240 240 238 237 236 235 234 233 232 231 230 231 243 257 253 247 242 239 238 235 234 235 238 242 245 246 245 246 247 248 248 249 251
336 332 333 331 329 327 321 313 304 295 286 279 273 268 266 262 261 260 258 259 260 259 259 258 257 255 253 252 250 248 245 243 241 238 236 237 238 238 239 238 239 240 241 241 241 240 240 241 241 241 240 240 240 240 239 237 235 235 234 233 234 234 231 232 240 252 255 246 237 234 233 230 232 236 238 242 246 246 244 244 245 245 244 246 248
331 329 329 329 330 329 324 318 311 301 291 284 278 273 270 267 265 262 261 262 262 261 261 261 259 257 255 253 252 250 248 246 243 240 238 238 238 239 239 239 239 240 240 241 241 240 240 241 242 242 241 241 241 240 240 238 235 235 235 234 235 237 236 236 240 248 258 255 243 236 233 231 234 239 241 243 244 243 243 244 245 245 244 245 247
327 325 325 326 327 326 323 318 312 305 298 291 284 278 274 271 268 265 263 264 263 262 261 260 259 257 255 253 251 250 249 247 245 242 240 240 240 240 240 240 240 240 241 242 242 241 241 242 243 243 241 242 244 244 243 242 239 238 238 238 238 240 240 240 241 245 254 260 254 245 241 239 239 238 238 238 238 239 241 242 243 243 244 246 248
324 321 322 322 322 322 319 315 311 307 304 300 294 288 282 276 272 269 267 265 264 263 261 259 257 255 253 252 251 249 249 248 246 244 243 242 242 242 242 241 241 242 242 243 243 242 242 242 244 244 243 244 245 245 244 243 242 241 241 241 240 241 241 241 242 244 248 252 253 251 245 239 236 234 234 236 236 237 238 239 240 241 243 245 247
321 319 318 318 318 317 316 314 312 308 305 304 301 297 290 282 277 273 271 269 267 264 262 259 256 254 253 253 251 250 249 248 246 245 245 244 242 242 242 243 243 243 243 244 244 243 243 244 245 244 244 244 244 244 243 242 241 240 239 240 240 240 239 238 238 241 245 250 251 245 236 233 232 233 236 236 234 233 234 235 238 239 240 241 242
322 318 316 314 312 312 314 315 314 312 309 308 306 302 297 290 284 280 277 274 272 268 264 261 259 256 255 254 252 251 250 249 248 248 247 246 244 244 243 244 244 245 245 245 245 245 245 245 246 245 243 243 244 243 242 241 240 240 240 240 240 239 239 238 235 234 239 247 250 246 237 232 230 232 235 233 229 230 230 230 234 236 236 238 241
320 318 316 313 310 312 315 317 316 315 314 313 311 308 306 301 295 290 285 280 275 273 270 267 264 261 258 255 254 253 251 250 250 249 248 247 246 245 246 246 246 246 247 247 247 247 247 248 247 246 244 244 245 245 243 241 240 239 239 238 237 236 237 240 238 234 235 239 243 243 238 229 224 225 227 221 218 226 228 225 229 234 234 237 241
320 319 318 315 315 317 318 319 319 319 318 318 316 314 312 309 305 298 291 285 280 277 275 272 269 266 262 259 257 254 252 251 250 250 249 248 247 247 248 248 248 248 248 248 248 247 248 249 249 247 246 246 246 245 244 242 241 239 239 236 234 234 235 237 237 234 233 235 238 237 230 222 219 214 210 212 216 225 227 222 226 235 236 239 242
321 320 319 320 322 324 324 324 324 324 322 321 321 320 318 315 311 305 298 292 286 282 278 275 272 269 267 264 261 257 254 253 253 251 250 250 249 249 249 249 249 249 249 249 249 248 248 249 249 249 249 248 248 246 244 243 242 242 242 239 235 234 233 231 232 232 230 230 231 228 220 217 218 214 215 222 223 224 221 216 221 228 229 236 247
324 324 325 328 330 332 333 332 331 329 326 325 325 324 323 319 315 310 305 301 295 290 284 280 276 273 271 268 266 262 259 257 256 254 252 251 251 250 251 251 251 251 251 250 250 250 249 248 247 247 247 248 249 248 247 246 245 245 245 242 239 237 232 228 229 229 227 228 229 225 219 222 225 221 222 226 224 221 220 218 216 212 206 212 235
333 334 336 338 340 339 337 335 333 330 328 327 327 326 324 320 316 313 309 307 303 297 291 287 283 280 276 273 270 267 265 263 261 258 256 255 254 254 253 254 254 254 253 253 253 253 251 250 250 248 247 246 245 245 246 248 249 249 248 247 244 240 235 234 234 230 226 226 227 223 221 225 226 222 223 225 223 221 220 218 212 207 203 205 210
349 351 350 347 344 341 339 337 335 333 331 329 327 327 325 322 319 316 312 309 305 300 296 294 291 288 284 278 274 271 269 267 265 264 263 261 259 258 257 257 257 257 256 255 254 254 253 252 251 250 249 248 249 250 249 250 251 251 250 248 245 241 239 240 240 237 233 230 228 227 227 226 223 225 229 228 221 213 208 208 211 211 209 212 216
2 359 354 349 345 343 342 341 339 338 337 335 332 329 328 325 323 321 316 311 306 303 301 299 296 294 291 286 282 277 273 271 269 267 267 267 265 262 259 257 255 256 257 255 254 253 253 252 251 252 251 250 251 253 252 250 250 249 247 246 245 242 240 239 238 238 238 235 234 235 235 232 231 234 236 230 220 213 209 210 213 213 212 216 221
3 356 351 349 346 345 344 342 340 339 338 337 336 334 332 328 325 323 320 315 310 306 303 301 299 298 296 293 288 284 282 279 277 272 269 267 268 268 266 263 259 258 258 258 257 257 256 255 254 255 255 252 250 249 249 250 250 249 246 245 243 241 240 239 240 242 242 241 240 241 243 242 241 240 237 231 226 225 223 222 221 216 210 209 209
357 353 349 347 345 344 344 341 339 338 338 337 336 336 335 332 330 327 322 318 314 310 306 303 301 301 300 297 291 288 288 288 286 283 277 271 268 267 267 267 265 263 261 259 259 259 259 257 256 255 255 255 254 253 253 252 250 247 245 242 241 241 241 243 246 248 248 246 245 245 245 245 244 242 238 234 230 225 221 218 216 205 193 187 188
351 347 345 343 343 343 343 340 338 337 336 335 333 333 333 332 334 333 326 321 318 314 310 308 305 301 299 297 293 291 292 292 291 289 285 279 273 267 264 264 264 263 263 262 261 261 261 260 259 258 256 257 258 258 258 255 250 246 243 241 240 240 241 244 249 250 249 247 246 245 243 242 242 242 239 235 230 219 207 196 193 188 180 178 182
347 343 341 339 340 341 342 341 339 337 335 333 330 330 330 330 332 332 327 321 319 318 316 312 308 304 300 297 295 292 293 294 295 293 289 284 278 271 266 265 262 261 261 262 261 261 261 261 261 260 260 259 259 259 259 255 250 246 243 242 242 241 242 246 250 250 248 246 243 241 240 240 240 239 236 231 225 217 208 200 196 188 182 186 179
343 340 338 338 338 339 340 340 338 337 335 333 331 329 329 329 330 330 327 322 319 318 319 316 312 310 305 301 298 294 294 296 297 295 294 290 282 275 271 267 265 264 264 264 263 261 260 260 260 260 261 261 260 259 258 254 249 246 243 240 238 242 246 248 248 247 244 241 237 234 234 235 234 233 231 226 222 219 216 212 203 192 186 186 173
341 339 338 339 339 340 340 339 338 337 336 335 334 332 331 330 331 331 328 325 321 318 317 315 312 312 310 307 304 299 298 300 301 300 298 294 287 280 274 267 266 268 271 270 269 267 264 262 261 261 262 263 262 261 258 254 251 249 245 237 234 243 251 250 247 244 239 235 232 229 228 227 226 224 222 219 217 216 214 212 208 201 194 186 178
342 341 340 340 340 339 339 338 337 338 339 339 336 334 334 332 329 329 327 325 322 319 317 316 312 312 313 311 309 307 306 306 306 307 303 298 293 284 275 270 269 272 274 273 270 270 270 269 268 266 264 264 265 264 261 257 254 251 247 242 245 253 255 249 244 239 233 229 227 224 222 218 216 216 214 210 209 208 207 208 211 209 202 194 189
341 339 339 338 338 338 337 336 336 337 339 341 336 334 335 333 329 328 325 323 320 316 316 317 315 314 315 314 312 314 316 316 316 315 312 306 301 291 280 276 275 273 273 272 270 271 273 274 275 273 270 267 266 265 264 261 257 253 251 250 252 254 250 243 239 232 224 221 218 213 210 208 205 206 205 203 203 202 202 205 208 209 209 209 208
338 336 336 335 334 334 333 333 335 335 337 339 336 332 332 332 330 329 327 322 318 314 314 316 315 314 315 316 316 318 321 322 322 322 319 315 309 301 291 286 283 277 271 270 272 274 276 277 277 276 274 270 267 264 263 262 257 254 253 253 252 249 242 237 233 224 217 214 209 204 203 202 200 200 200 198 197 197 198 203 207 209 211 214 217
334 333 333 332 331 331 330 328 330 332 334 335 333 330 330 331 329 328 327 323 317 313 312 314 313 310 311 314 316 319 322 323 323 322 322 319 313 308 301 295 291 285 278 276 278 280 280 280 280 278 276 273 269 267 265 262 259 256 255 254 250 243 235 230 226 218 211 208 206 206 205 201 200 200 199 196 194 193 194 199 204 206 207 207 208
330 328 328 327 328 328 326 325 327 329 330 331 329 326 327 328 325 325 324 321 316 311 311 312 311 308 308 309 312 317 320 322 322 323 323 322 318 315 310 304 300 294 287 285 286 287 287 286 284 281 277 274 271 268 264 259 256 255 254 251 244 234 227 224 219 211 204 203 205 209 210 207 204 202 199 195 190 186 185 184 184 186 187 185 183
325 323 323 322 324 325 323 322 324 325 324 325 324 322 323 321 318 318 318 317 313 308 307 308 309 308 307 307 310 314 318 320 320 322 324 324 323 322 318 313 308 303 297 294 294 293 293 292 287 281 275 272 270 266 262 258 255 252 250 245 238 230 224 220 215 207 204 206 206 207 209 207 204 200 196 191 185 181 179 175 167 163 166 165 157
321 320 321 322 324 325 325 323 323 323 322 322 320 318 317 315 310 309 310 311 309 306 304 305 305 305 306 307 310 311 313 317 319 322 325 326 324 323 320 314 311 309 305 303 303 302 300 299 293 284 275 270 267 263 260 258 253 248 244 239 234 228 224 220 216 212 212 212 209 206 204 199 194 192 189 186 182 180 179 175 165 156 157 158 150
317 315 317 319 320 321 320 320 321 320 319 319 317 314 312 311 306 302 301 302 301 299 299 298 298 299 300 304 308 309 309 312 316 319 322 321 318 317 315 312 310 307 306 306 307 306 304 301 295 285 272 265 259 255 252 250 247 243 237 232 229 226 224 221 219 218 218 214 204 196 189 184 184 184 181 178 176 175 176 175 168 159 157 156 148
313 312 314 316 316 316 315 314 314 313 313 314 314 311 309 308 305 302 301 300 296 293 292 290 291 295 295 295 298 300 301 304 309 312 313 312 310 309 308 307 306 304 303 305 305 303 301 297 290 279 267 259 252 247 244 241 239 236 231 226 223 221 219 217 216 216 213 205 195 188 181 176 176 176 174 174 174 175 175 174 170 164 160 156 150
314 314 317 318 317 317 316 314 312 311 309 310 311 310 309 307 304 301 301 301 298 293 287 285 288 292 291 289 288 286 288 296 304 309 311 310 309 306 303 302 301 299 300 301 298 294 290 286 279 270 260 254 249 243 239 236 231 228 225 221 218 215 214 214 214 213 208 202 198 192 183 178 176 176 176 176 175 176 177 176 171 167 163 157 150
318 318 318 318 317 316 313 312 311 310 309 309 310 309 309 309 307 302 300 301 301 296 290 287 287 286 284 285 287 286 288 295 301 305 308 310 310 307 303 300 297 296 296 295 289 283 279 276 272 266 257 253 250 245 241 235 229 224 221 220 218 216 214 213 213 211 207 203 199 193 186 183 181 182 182 179 175 174 175 174 171 168 166 162 155
321 319 316 315 315 312 308 306 307 306 308 309 309 307 307 308 309 308 305 302 299 295 292 290 289 286 282 282 285 289 292 297 301 303 304 306 307 307 305 301 297 294 292 287 278 272 269 267 266 264 258 251 249 247 242 236 230 225 220 220 222 220 218 217 215 210 207 204 199 193 190 189 187 186 185 180 175 172 172 171 170 167 166 163 158
318 315 314 313 312 309 306 305 305 306 306 307 306 305 303 303 304 306 307 305 301 297 295 293 290 288 287 285 286 290 294 297 300 302 303 304 304 305 305 302 299 295 288 278 269 265 264 262 262 262 259 254 251 248 242 236 233 228 224 223 224 224 224 222 217 211 207 205 202 198 195 192 189 187 185 181 176 172 170 170 168 164 161 159 158
315 312 311 309 307 305 303 302 301 302 302 301 301 302 300 298 298 299 302 305 306 303 301 298 294 291 290 290 291 293 295 297 298 298 300 302 305 306 304 301 299 294 283 270 264 263 262 260 261 261 259 257 254 249 243 239 235 231 229 229 230 229 227 222 217 213 209 205 203 201 196 191 188 184 181 178 174 171 170 170 169 164 161 159 159
312 309 307 305 302 299 298 298 297 296 296 296 297 297 296 296 295 294 294 296 299 300 299 297 296 295 293 293 293 294 295 296 296 296 297 299 304 305 302 296 292 287 276 264 260 260 260 259 261 261 260 259 256 250 246 242 237 233 232 231 230 229 224 219 216 215 211 205 202 199 195 192 190 186 180 176 173 172 173 174 172 168 164 161 159
306 305 304 303 299 297 295 295 293 291 290 290 290 290 292 292 291 291 291 291 291 292 292 294 296 296 295 294 294 295 295 294 295 295 294 296 299 299 293 287 283 279 271 262 258 258 258 258 259 259 259 258 256 252 248 244 241 237 234 232 229 226 220 216 214 212 209 206 202 198 193 190 187 184 179 176 176 175 174 173 171 167 164 160 159
303 302 301 300 298 295 293 291 289 287 286 286 284 284 286 287 288 289 290 290 290 290 290 294 298 299 297 296 296 296 295 294 294 293 292 291 292 287 282 279 279 275 270 265 261 259 258 257 257 257 257 256 255 253 250 246 243 240 236 233 230 225 221 217 214 209 206 204 199 195 190 185 183 181 178 177 177 175 172 170 168 164 161 159 157
301 300 299 298 296 294 291 289 286 284 282 282 281 281 283 284 284 285 286 287 290 291 293 296 298 297 297 299 299 295 292 290 288 287 286 286 284 279 275 275 275 273 271 270 266 262 261 260 258 256 255 255 254 252 250 246 243 240 235 231 227 224 220 216 211 207 204 201 196 191 187 183 181 181 179 177 175 172 170 169 166 160 158 159 159
302 300 299 297 295 293 290 288 286 285 282 282 282 283 285 285 285 285 286 287 289 291 294 295 294 294 298 302 303 300 294 287 281 280 281 281 279 276 274 273 272 271 272 272 269 266 264 263 261 259 257 256 253 251 249 246 242 238 232 227 222 218 213 209 205 202 200 197 193 189 185 182 181 180 178 176 173 169 168 168 165 161 160 161 161
303 301 299 296 294 292 290 288 287 287 286 287 288 289 288 287 287 288 289 289 291 293 293 294 295 299 303 305 307 305 300 292 287 284 282 280 279 277 276 274 273 273 273 272 271 269 266 265 264 261 259 257 254 252 249 246 242 236 229 223 217 213 209 206 202 199 196 194 190 187 184 181 178 176 175 174 172 169 167 166 165 164 162 161 159
305 303 299 295 293 291 290 288 287 288 289 290 291 289 288 288 288 289 291 292 294 296 297 297 298 302 306 306 305 304 299 295 294 292 289 286 284 282 280 278 279 279 279 277 276 274 272 270 268 265 261 258 255 252 248 244 240 233 226 220 216 212 208 205 201 198 194 190 186 184 181 179 176 173 172 171 169 167 166 165 164 162 159 158 158
306 302 299 297 295 293 291 290 290 290 291 291 290 289 289 290 293 294 294 295 295 295 296 296 297 301 304 305 307 306 302 298 297 296 293 291 290 288 286 285 284 284 283 282 281 279 277 275 272 269 265 260 255 251 246 241 236 230 224 219 214 210 206 202 198 195 190 185 183 180 178 176 174 172 169 166 164 162 162 161 161 158 156 157 158
305 302 300 298 296 293 292 292 293 293 292 291 291 293 295 296 297 296 295 295 294 294 294 296 302 307 309 311 312 312 307 302 299 298 297 297 297 296 294 292 290 289 287 285 283 281 279 277 275 272 267 262 257 251 246 241 236 229 223 217 212 208 204 198 193 189 185 181 179 177 174 172 170 167 164 162 160 159 158 158 157 156 156 158 159
304 301 297 294 292 289 289 290 291 290 291 291 292 296 298 298 298 298 297 297 299 301 303 307 312 315 315 317 318 315 310 306 305 304 305 305 305 304 302 301 298 296 293 290 287 285 281 278 275 271 265 260 256 250 246 242 237 231 224 217 211 206 201 195 190 187 182 178 174 171 169 168 166 163 161 160 158 156 155 156 157 157 158 159 159
303 298 294 292 291 290 290 291 290 290 294 297 299 302 304 304 304 306 307 309 312 315 316 317 319 321 322 325 327 326 323 321 318 316 315 315 314 311 310 308 305 302 299 295 292 288 283 277 271 265 259 255 251 246 242 239 235 231 226 219 211 205 200 194 189 185 180 175 171 167 165 164 163 162 160 160 159 157 157 158 160 160 161 161 161
306 302 299 296 294 294 296 298 300 303 307 310 310 311 314 315 317 318 319 321 323 325 327 329 331 333 336 338 340 340 339 337 335 333 331 329 326 323 319 315 311 307 304 299 294 289 280 270 261 254 250 248 244 239 235 232 228 224 221 216 210 203 197 192 187 182 177 173 169 165 163 161 161 162 161 160 160 159 159 161 164 164 163 163 162
314 311 309 306 304 305 310 317 321 322 321 320 319 320 321 323 325 325 327 329 332 336 340 343 344 346 348 350 351 353 353 351 350 349 347 345 343 339 334 329 326 321 315 310 303 294 280 267 257 248 243 240 233 227 224 221 217 215 212 209 205 200 194 189 184 179 175 172 169 165 163 160 160 161 162 161 161 161 161 162 164 165 164 163 161
324 324 326 328 331 335 338 339 338 335 332 331 330 329 328 330 333 335 337 340 343 347 351 353 355 359 2 3 3 4 4 3 1 0 359 356 354 351 349 347 345 343 341 339 334 326 309 286 262 239 226 215 207 205 203 201 200 200 199 197 196 194 190 185 180 175 173 171 168 166 163 161 160 161 162 163 162 162 162 162 163 163 161 160 159
340 342 346 349 352 354 351 348 346 345 344 343 342 342 343 347 349 351 352 353 355 358 360 360 1 5 10 12 14 15 15 14 13 13 12 11 10 9 10 10 10 11 12 12 12 13 14 16 47 117 140 153 160 165 170 173 177 181 182 183 184 185 183 180 177 174 172 170 167 165 164 162 161 161 162 163 164 163 162 161 161 160 158 157 157
359 1 2 1 3 4 2 359 358 358 356 356 355 356 359 1 2 3 5 6 8 9 8 7 6 7 10 14 17 21 23 24 25 24 24 24 25 29 34 37 38 39 40 39 39 41 45 52 64 76 87 100 113 123 132 141 149 157 163 168 172 175 176 175 174 173 172 170 168 167 165 162 160 159 161 162 163 162 161 160 159 158 157 156 157
10 10 10 8 9 9 6 5 4 3 2 2 2 2 3 4 5 10 15 19 19 19 19 17 14 14 14 14 16 18 22 26 29 30 32 34 35 38 42 44 46 47 48 49 49 50 53 58 65 71 76 80 85 91 100 111 123 136 147 154 160 165 169 170 170 171 172 171 169 167 165 163 161 160 160 161 161 161 160 159 158 158 158 158 159